{"data":{"norad_id":65608,"epoch":"2026-05-25T04:39:30.233088Z","epoch_age_seconds":61700,"freshness":"FRESH","line1":"1 65608U 25207S   26145.19409992  .00007874  00000+0  54905-3 0  9993","line2":"2 65608  97.4477 213.7134 0001067 109.7826 250.3516 15.05660055 39774","mean_motion":15.05660055,"eccentricity":0.0001067,"inclination_deg":97.4477,"raan_deg":213.7134,"arg_perigee_deg":109.7826,"mean_anomaly_deg":250.3516,"bstar":0.00054905,"rev_number":3977,"period_min":95.63911822048,"perigee_km":548.74113472798,"apogee_km":550.21948826226,"semimajor_km":6927.6173114951,"source":"CELESTRAK","updated_at":"2026-05-25T13:38:20.855470Z"}}